Regional Weather Roundup
Issued by NWS Sterling, VA

Home | Current Version | Previous Version | Graphics & Text | Print | Product List | Glossary On
Versions: 1 2 3 4 5 6 7 8 9 10 11 12 13 14 15 16 17 18 19 20 21 22 23 24 25 26 27
000
ASUS41 KLWX 292311
RWRLWX

REGIONAL WEATHER ROUNDUP
NATIONAL WEATHER SERVICE BALTIMORE MD/WASHINGTON DC
700 PM EDT THU SEP 29 2016

Note: "FAIR" indicates few or no clouds below 12,000 feet
with no significant weather and/or obstructions to visibility.
 TC=TEMPERATURE CELSIUS

 * =Non NWS site. Station does not report precipitation (e.g. rain,
    snow, etc.), thunder, or fog.

DCZ001-MDZ009-015-VAZ040>042-051-053>054-300000-
WASHINGTON METRO

CITY           SKY/WX    TMP DP  RH WIND       PRES   REMARKS
WASHINGTON NAT CLOUDY    68  66  93 E13G22    30.15S
DULLES         DRIZZLE   65  63  93 E15G25    30.14S FOG
ANDREWS AFB    DRIZZLE   64  63  94 NE14G25   30.14R
FT BELVOIR     DRIZZLE   66  64  94 VRB6      30.14S
QUANTICO       CLOUDY    70  65  84 E15       30.13S
COLLEGE PARK*  CLOUDY    63  61  94 E10G21    30.16S
LEESBURG*      CLOUDY    64  64 100 E7        30.16S FOG
MANASSAS*      LGT RAIN  66  64  94 E10G16    30.13S
GAITHERSBURG*  CLOUDY    63  61  94 E6        30.21R

$$

MDZ006>007-011-014-300000-
BALTIMORE METRO

CITY           SKY/WX    TMP DP  RH WIND       PRES   REMARKS
BWI AIRPORT    DRIZZLE   64  61  90 E17G28    30.18S FOG
MD SCIENCE CTR   N/A     64  61  90 MISG      30.20R
MARTIN STATE   DRIZZLE   66  64  94 E13G25    30.21F
ANNAPOLIS      CLOUDY    68  63  84 NE12G17   30.17S
FORT MEADE*    CLOUDY    63  61  94 E10G18    30.20S

$$

MDZ012-015-019>023-300000-
MARYLAND EASTERN SHORE

CITY           SKY/WX    TMP DP  RH WIND       PRES   REMARKS
OCEAN CITY     LGT RAIN N/A N/A N/A NE24G32   30.13S
SALISBURY      RAIN      67  65  93 NE20G33   30.13F FOG
BAY BRIDGE AP* LGT RAIN  66  63  88 MISG      30.16F
CAMBRIDGE*     CLOUDY    64  63  94 E17G26    30.12F
EASTON*        RAIN      66  63  88 E15G23    30.18S

$$

MDZ017>025-300000-
SOUTHERN MARYLAND

CITY           SKY/WX    TMP DP  RH WIND       PRES   REMARKS
PATUXENT RIVER LGT RAIN  68  62  81 E23G31    30.11S
ST INIGOES     LGT RAIN  68  65  90 NE16G23   30.10F
LEONARDTOWN*   CLOUDY    68  61  77 NE10G17   30.14F

$$

MDZ003>005-300000-
NORTH CENTRAL MARYLAND

CITY           SKY/WX    TMP DP  RH WIND       PRES   REMARKS
FREDERICK*     CLOUDY    66  66 100 E10G17    30.21R
HAGERSTOWN APT CLOUDY    63  59  87 NE13      30.19R

$$

MDZ501>502-300000-
WESTERN MARYLAND

CITY           SKY/WX    TMP DP  RH WIND       PRES   REMARKS
OAKLAND*         N/A     55  55 100 E14G26    30.13S FOG
CUMBERLAND*    CLOUDY    63  61  94 E16G25    30.17R

$$

VAZ025>031-300000-
SHENANDOAH VALLEY

CITY           SKY/WX    TMP DP  RH WIND       PRES   REMARKS
WINCHESTER*    CLOUDY    64  63  94 E14       30.13S FOG
FRONT ROYAL*   CLOUDY    64  63  94 E9        30.11S
LURAY*         DRIZZLE  N/A N/A N/A E20G30    30.09R
NEW MARKET*    CLOUDY   N/A N/A N/A E15G21    30.06S
STAUNTON*      HVY RAIN  67  65  94 E13G22    30.07F
WAYNESBORO*    CLOUDY    67  66  96 E7G18     30.06S VSB 1

$$

WVZ021-048>050-054>055-300000-
EASTERN WEST VIRGINIA PANHANDLE

CITY           SKY/WX    TMP DP  RH WIND       PRES   REMARKS
MARTINSBURG    CLOUDY    64  60  87 E12       30.16R
PETERSBURG*    RAIN      66  65  96 CALM      30.06S

$$

VAZ036>039-050-300000-
CENTRAL FOOTHILLS

CITY           SKY/WX    TMP DP  RH WIND       PRES   REMARKS
CHARLOTTESVILL LGT RAIN  71  67  87 E14       30.07R
CULPEPER*      CLOUDY    69  66  88 E7        30.12S
ORANGE*          N/A     70  68  94 NE7       30.11R
GORDONSVILLE*  NOT AVBL
WARRENTON*     CLOUDY    69  61  77 E9        30.11S

$$

VAZ055>057-300000-
NORTH AND CENTRAL PIEDMONT

CITY           SKY/WX    TMP DP  RH WIND       PRES   REMARKS
FREDERICKSBRG* CLOUDY    69  69 100 E10       30.10R
STAFFORD*      CLOUDY    68  65  92 E14G23    30.15R

$$

NCZ024-NYZ072-PAZ021-071-VAZ022-071-300000-
OTHER REGIONAL OBSERVATIONS

CITY           SKY/WX    TMP DP  RH WIND       PRES   REMARKS
NEW YORK CITY  CLOUDY    63  52  67 E10G18    30.37S
PHILADELPHIA   RAIN      62  59  90 E18G26    30.28R FOG
PITTSBURGH     CLOUDY    64  59  83 E16       30.11R
ROANOKE        TSTM      67  65  93 S5        30.04S FOG
RICHMOND       CLOUDY    69  66  90 E14G22    30.07R
RALEIGH        CLOUDY    74  69  85 SE3       30.01S

$$

ANZ530>537-300000-
MARINE OBSERVATIONS

STATION/POSITION TIME  TEMP    WIND        PRES
                       AIR SEA DIR/SP/G
                 (UTC) (F)     (DEG/KT/KT) (MB)
THOMAS PT LIGHT  2300   67 73   70/ 20/ 24 1022.2F
BALT KEY BRIDGE  2242           70/ 17/ 22 1022.2R
COVE POINT       2242          100/ 25/ 34 1020.4R
LEWISETTA        2248      72   90/ 25/ 31 1018.5F
SOLOMONS ISLAND  2248      74   60/ 22/ 28   N/A
PINEY POINT      2242           80/ 16/ 19   N/A

$$





USA.gov is the U.S. government's official web portal to all federal, state and local government web resources and services.